Flag for Austria Weather past 2 weeks in Ansfelden, Upper Austria, Austria

Now
66 °F

Partly sunny.


Feels Like: 66 °F
Forecast: 52 / 65 °F
Wind: 3 mph from East

Location: Linz / Hoersching-Flughafen

Current Time: May 5, 2015 at 11:24:49 AM

Latest Report: May 5, 2015 at 11:00 AM


Visibility: 4 mi

Pressure: 29.74 "Hg

Humidity: 80%

Dew point: 60 °F

Location of AnsfeldenLocation

Historic Weather in Ansfelden — Graph

°F

Ansfelden temperature yesterday

Maximum temperature yesterday: 70 °F (at 6:00 PM)
Minimum temperature yesterday: 55 °F (at 6:00 AM)
Average temperature yesterday: 62 °F

Past Weeks' High & Low Weather Summary

 TemperatureHumidityPressure
High77 °F (Apr 27, 5:00 PM)100% (May 4, 6:00 AM)30.35 "Hg (May 4, 6:00 AM)
Low38 °F (Apr 30, 6:00 AM)24% (Apr 25, 3:00 PM)29.41 "Hg (Apr 27, 7:00 PM)
Average54 °F73%29.96 "Hg
* Reported Apr 20 9:00 AM — May 5 9:00 AM, Ansfelden, Weather by CustomWeather, © 2015

Note: Actual official high and low records may vary slightly from our data, if they occured in-between our weather recording intervals... More about our weather records

Advertising

Ansfelden weather history for previous 24 hours

 ConditionsComfort  
Time TempWeatherWind HumidityBarometerVisibility
9:00 AM
Tue, May 5
60 °FLow clouds.6 mph94%29.76 "Hg2 mi
8:00 AM59 °FLow clouds.5 mph96%29.77 "Hg1 mi
7:00 AM58 °FLow clouds.5 mph95%29.77 "Hg2 mi
6:00 AM58 °FLow clouds.N/A96%29.78 "Hg2 mi
5:00 AM58 °FPassing clouds.N/A95%29.78 "Hg4 mi
4:00 AM58 °FPassing clouds.N/A96%29.80 "Hg6 mi
3:00 AM58 °FOvercast.N/A95%29.81 "Hg5 mi
2:00 AM58 °FPassing clouds.N/A95%29.83 "Hg6 mi
1:00 AM59 °FCool.N/A93%29.84 "Hg7 mi
12:00 AM60 °FOvercast.N/A90%29.85 "Hg11 mi
11:00 PM
Mon, May 4
62 °FPassing clouds.N/A89%29.87 "Hg12 mi
10:00 PM62 °FPassing clouds.N/A87%29.87 "Hg19 mi
9:00 PM65 °FOvercast.N/A83%29.88 "Hg28 mi
8:00 PM67 °FOvercast.N/A76%29.87 "Hg28 mi
7:00 PM68 °FOvercast.N/A74%29.87 "Hg19 mi
6:00 PM70 °FOvercast.N/A62%29.86 "Hg22 mi
5:00 PMN/APassing clouds.12 mphN/AN/A25 mi
4:00 PM69 °FOvercast.N/A62%29.88 "Hg19 mi
3:00 PM68 °FOvercast.N/A67%29.88 "Hg28 mi
2:00 PM67 °FOvercast.N/A72%29.89 "Hg19 mi
1:00 PM65 °FOvercast.N/A77%29.90 "Hg19 mi
12:00 PM65 °FOvercast.N/A77%29.91 "Hg16 mi
11:00 AM64 °FOvercast.N/A84%29.91 "Hg14 mi
Weather by CustomWeather, © 2015

See weather overviewHow to use our weather pages